BEIDOU-3 M8 (C30)

Last updated on Mon Feb 13 2023 00:03:21 GMT+0000 (Coordinated Universal Time)

1 43246U 18029B 23042.06021087 -.00000076 00000+0 10000-3 0 9991 2 43246 55.1248 342.2927 0004905 350.4419 198.0236 1.86232683 33126

Satellite not in orbit

BEIDOU-3 M8 (C30)